TimePDT,TemperatureF,Dew PointF,Humidity,Sea Level PressureIn,VisibilityMPH,Wind Direction,Wind SpeedMPH,Gust SpeedMPH,PrecipitationIn,Events,Conditions,WindDirDegrees,DateUTC
12:00 AM,50.7,45.0,81,30.10,-9999.0,NNW,11.5,-,N/A,,Unknown,340,2013-03-31 07:00:00
1:00 AM,51.1,43.5,75,30.09,-9999.0,NNW,13.8,-,N/A,,Unknown,330,2013-03-31 08:00:00
2:00 AM,51.1,43.7,76,30.09,-9999.0,NW,13.8,-,N/A,,Unknown,320,2013-03-31 09:00:00
3:00 AM,50.7,43.2,75,30.08,-9999.0,NNW,16.1,-,N/A,,Unknown,330,2013-03-31 10:00:00
4:00 AM,50.0,43.0,77,30.08,-9999.0,NW,15.0,-,N/A,,Unknown,320,2013-03-31 11:00:00
5:00 AM,49,43,71,30.06,,NW,15.0,,,,,320,2013-03-31 12:00:00
5:00 AM,49.5,42.6,77,30.06,-9999.0,NW,15.0,-,N/A,,Unknown,320,2013-03-31 12:00:00
6:00 AM,48.9,42.4,78,30.06,-9999.0,NW,16.1,-,N/A,,Unknown,320,2013-03-31 13:00:00
7:00 AM,48.9,40.8,74,30.06,-9999.0,NW,17.3,-,N/A,,Unknown,320,2013-03-31 14:00:00
8:00 AM,48.7,42.3,78,30.06,-9999.0,NW,18.4,-,N/A,,Unknown,320,2013-03-31 15:00:00
10:00 AM,48.4,42.3,79,30.05,-9999.0,NNW,17.3,-,N/A,,Unknown,330,2013-03-31 17:00:00
11:00 AM,49,43,71,30.05,,NNW,15.0,,,,,330,2013-03-31 18:00:00
11:00 AM,49.1,42.6,78,30.05,-9999.0,NNW,15.0,-,N/A,,Unknown,330,2013-03-31 18:00:00
12:00 PM,50.4,42.3,74,30.05,-9999.0,NNW,15.0,-,N/A,,Unknown,330,2013-03-31 19:00:00
1:00 PM,50.5,42.8,75,30.03,-9999.0,NNW,13.8,-,N/A,,Unknown,330,2013-03-31 20:00:00
2:00 PM,51.4,43.2,73,30.02,-9999.0,NW,6.9,-,N/A,,Unknown,310,2013-03-31 21:00:00
3:00 PM,52.0,43.5,73,30.00,-9999.0,NW,6.9,-,N/A,,Unknown,310,2013-03-31 22:00:00
4:00 PM,52.7,42.4,68,29.98,-9999.0,WNW,8.1,-,N/A,,Unknown,300,2013-03-31 23:00:00
5:00 PM,53,41,54,29.95,,WNW,6.9,,,,,290,2013-04-01 00:00:00
5:00 PM,53.2,41.2,64,29.95,-9999.0,WNW,6.9,-,N/A,,Unknown,290,2013-04-01 00:00:00
6:00 PM,54.9,40.8,59,29.93,-9999.0,WNW,8.1,-,N/A,,Unknown,300,2013-04-01 01:00:00
7:00 PM,54.1,41.7,63,29.92,-9999.0,West,4.6,-,N/A,,Unknown,280,2013-04-01 02:00:00
8:00 PM,54.7,40.3,58,29.91,-9999.0,WNW,9.2,-,N/A,,Unknown,290,2013-04-01 03:00:00
9:00 PM,52.9,41.4,65,29.91,-9999.0,West,5.8,-,N/A,,Unknown,280,2013-04-01 04:00:00
10:00 PM,50.9,44.8,80,29.92,-9999.0,NW,3.5,-,N/A,,Unknown,310,2013-04-01 05:00:00
11:00 PM,51,42,64,29.93,,Calm,Calm,,,,,,2013-04-01 06:00:00
11:00 PM,50.7,42.4,73,29.93,-9999.0,Calm,Calm,-,N/A,,Unknown,0,2013-04-01 06:00:00